Weather in Ilkino

Russia / Vladimir Oblast     55°13′17″N   41°36′10″E
temp.,
°C
wind,
m/s
gust,
m/s
humid.,
%
clouds,
%
prec.,
mm/h
press.,
hPa
HPBL,
m
1 march, mon
mon100:00−12nne129780 0.1 102121
03:00−13nw229778 0.1 102221
06:00−13nw229769 0.0 102322
09:00−9w229579 0.0 102488
12:00−4wsw369094 0.0 1024439
15:00−2wsw478994 0.1 1022609
18:00−3wsw51093100 0.1 1019644
21:00−2wsw51292100 0.1 1017564
2 march, tue
tue200:000wsw61294100 0.1 1013705
03:00+1w51294100 0.1 1011602
06:00+1w51294100 0.0 1008782
09:00+1w51198100 0.6 1007728
12:00+1nw51096100 0.3 1005906
15:00+1nw598963 0.4 1005992
18:00−2wnw4109094 0.1 1006421
21:00−2wnw4109294 0.3 1007432
3 march, wed
wed300:00−3wnw4119697 0.2 1007557
03:00−3nw4109497 0.6 1008673
06:00−7nw5129191 0.1 1009535
09:00−7nw5128995 0.1 1012653
12:00−4nw6118399 0.1 1012827
15:00−2nw598058 0.1 10121008
18:00−3w4109298 0.1 1011583
21:00−4w4119496 0.1 1012441
4 march, thu
thu400:00−3w4109596 0.1 1010542
03:00−5wsw4129494 0.1 1009396
06:00−3wsw51393100 0.0 1006617
09:00−1sw71491100 0.3 1002782
12:000wsw81489100 0.1 10001156
15:000wsw71296100 0.4 998933
18:00−1wsw61296100 1.4 996894
21:000w61395100 2.6 996923
5 march, fri
fri500:00−3nw41091100 0.8 999695
03:00−8nw399366 0.8 1003261
06:00−10wnw35960 0.0 1007124
09:00−8wnw25920 0.0 1009238
12:00−4wnw24810 0.0 1010573
15:00−3wnw35781 0.0 1012835
18:00−8nw12896 0.0 101321
21:00−10nne01904 0.0 101421